Station UNLA2 - 9462620 - Unalaska, AK Image indicating link to RSS feed of recent meteorological observations for station UNLA2


Conditions at UNLA2 as of
(4:48 am AKDT)
1248 GMT on 06/21/2024:
     

Click on the graph icon in the table below to see a time series plot of the last five days of that observation.

5-day plot - Wind Direction Wind Direction (WDIR): S ( 190 deg true )
5-day plot - Wind Speed Wind Speed (WSPD): 2.9 kts
5-day plot - Wind Gust Wind Gust (GST): 5.1 kts
5-day plot - Atmospheric Pressure Atmospheric Pressure (PRES):30.11 in
5-day plot - Water Temperature Water Temperature (WTMP): 42.3 °F
5-day plot - Wind Speed at 10 Meters Wind Speed at 10 meters (WSPD10M): 3.9 kts
5-day plot - Wind Speed at 20 Meters Wind Speed at 20 meters (WSPD20M): 3.9 kts
5-day plot -  Wind Speed, Wind Gust and Atmospheric Pressure Combined plot of Wind Speed, Gust, and Air Pressure
NOS Water Level Observation Network Water Level
Previous observations
TIME
(AKDT)
5-day plot - Wind Direction
WDIR
 
5-day plot - Wind Speed
WSPD
kts
5-day plot - Wind Gust
GST
kts
5-day plot - Wave Height
WVHT
ft
5-day plot - Dominant Wave Period
DPD
sec
5-day plot - Average Wave Period
APD
sec
5-day plot - Mean Wave Direction
MWD
 
5-day plot - Atmospheric Pressure
PRES
in
5-day plot - Pressure Tendency
PTDY
in
5-day plot - Air Temperature
ATMP
°F
5-day plot - Water Temperature
WTMP
°F
5-day plot - Dew Point
DEWP
°F
5-day plot - Salinity
SAL
psu
5-day plot - Visibility
VIS
nmi
5-day plot - Tide (above MLLW)
TIDE
ft
2024-06-21 04:42 amSSW 4.1 6.0----30.11-- 42.1----
2024-06-21 04:36 am SW 2.9 7.0----30.11-- 42.3----
2024-06-21 04:30 amSSW 2.9 8.0----30.11-- 42.1----
2024-06-21 04:24 amSSW 6.0 8.9----30.11-- 42.1----
2024-06-21 04:18 amSSW 5.1 8.9----30.11-- 42.1----
2024-06-21 04:12 amSSW 6.0 8.9----30.11-- 41.9----
2024-06-21 04:06 amSSW 6.0 8.9----30.11-- 41.9----
2024-06-21 04:00 amSSW 4.1 8.0----30.11+0.03- 41.9----
2024-06-21 03:54 am SW 5.1 8.0----30.11-- 41.7----
2024-06-21 03:48 am S 5.1 8.0----30.11-- 41.7----
2024-06-21 03:42 amSSW 5.1 8.9----30.11-- 41.7----
2024-06-21 03:36 amSSW 1.9 5.1----30.11-- 41.7----
2024-06-21 03:30 am- 0.0 2.9----30.11-- 41.7----
2024-06-21 03:24 am SE 1.9 1.9----30.11-- 41.7----
2024-06-21 03:18 amSSE 1.9 2.9----30.11-- 41.9----
2024-06-21 03:12 am S 1.0 2.9----30.11-- 41.9----
2024-06-21 03:06 am- 0.0 4.1----30.11-- 42.1----
2024-06-21 03:00 amESE 2.9 4.1----30.10+0.04- 41.9----
2024-06-21 02:54 am E 2.9 4.1----30.10-- 41.9----
2024-06-21 02:48 am S 2.9 4.1----30.10-- 41.9----
2024-06-21 02:42 am S 2.9 5.1----30.10-- 42.1----
2024-06-21 02:36 am S 2.9 5.1----30.10-- 42.1----
2024-06-21 02:30 am S 2.9 4.1----30.09-- 42.1----
2024-06-21 02:24 am S 1.9 2.9----30.09-- 42.1----
2024-06-21 02:18 amSSE 1.0 2.9----30.09-- 41.9----
2024-06-21 02:12 amSSE 1.9 2.9----30.09-- 41.9----
2024-06-21 02:06 amSSE 1.9 2.9----30.09-- 41.9----
2024-06-21 02:00 amSSE 1.9 2.9----30.09+0.04- 41.9----
2024-06-21 01:54 am- 0.0 1.9----30.09-- 41.9----
2024-06-21 01:48 am SE 1.9 1.9----30.09-- 41.9----
2024-06-21 01:42 am- 0.0 1.9----30.09-- 41.9----
2024-06-21 01:36 am S 2.9 2.9----30.09-- 41.9----
2024-06-21 01:30 am SW 1.0 2.9----30.09-- 41.9----
2024-06-21 01:24 am S 1.9 2.9----30.08-- 42.1----
2024-06-21 01:18 am S 1.9 4.1----30.08-- 42.1----
2024-06-21 01:12 am W 1.9 1.9----30.08-- 42.1----
2024-06-21 01:06 amNNW 1.0 1.9----30.08-- 42.1----
2024-06-21 01:00 am NW 1.0 2.9----30.08+0.05- 42.1----
2024-06-21 12:54 amWSW 4.1 4.1----30.08-- 41.9----
2024-06-21 12:48 am NW 4.1 5.1----30.08-- 41.9----
2024-06-21 12:42 am NW 2.9 4.1----30.08-- 41.9----
2024-06-21 12:36 am W 4.1 5.1----30.07-- 42.1----
2024-06-21 12:30 am W 2.9 4.1----30.07-- 42.1----
2024-06-21 12:24 am NW 2.9 4.1----30.07-- 42.1----
2024-06-21 12:18 amNNW 1.9 2.9----30.07-- 42.1----
2024-06-21 12:12 am N 1.9 2.9----30.07-- 42.1----
2024-06-21 12:06 amNNE 1.9 4.1----30.06-- 42.1----
2024-06-21 12:00 am N 2.9 5.1----30.06+0.04- 42.1----
2024-06-20 11:54 pm N 2.9 5.1----30.06-- 42.1----
2024-06-20 11:48 pm N 2.9 5.1----30.06-- 42.1----
2024-06-20 11:42 pmNNE 1.0 5.1----30.06-- 42.1----
2024-06-20 11:36 pm N 2.9 4.1----30.05-- 42.1----
2024-06-20 11:30 pm N 1.9 1.9----30.05-- 42.1----
2024-06-20 11:24 pmNNE 1.9 4.1----30.05-- 42.1----
2024-06-20 11:18 pmNNE 1.9 6.0----30.05-- 41.9----
2024-06-20 11:12 pm N 4.1 6.0----30.04-- 41.9----
2024-06-20 11:06 pm- 0.0 1.0----30.04-- 41.9----
2024-06-20 11:00 pm- 0.0 2.9----30.04+0.04- 41.9----
2024-06-20 10:54 pm N 2.9 4.1----30.04-- 41.7----
2024-06-20 10:48 pm N 1.9 2.9----30.04-- 41.7----
2024-06-20 10:42 pmENE 1.9 4.1----30.04-- 41.7----
2024-06-20 10:36 pm E 2.9 7.0----30.03-- 41.7----
2024-06-20 10:30 pmENE 4.1 5.1----30.03-- 41.7----
2024-06-20 10:24 pmENE 5.1 7.0----30.03-- 41.7----
2024-06-20 10:18 pm N 4.1 5.1----30.03-- 41.7----
2024-06-20 10:12 pm N 4.1 7.0----30.03-- 41.9----
2024-06-20 10:06 pmNNW 5.1 8.0----30.03-- 41.9----
2024-06-20 10:00 pmNNW 7.0 8.9----30.03+0.04- 41.7----
2024-06-20 09:54 pm N 6.0 8.0----30.03-- 41.5----
2024-06-20 09:48 pmNNW 6.0 8.0----30.03-- 41.7----
2024-06-20 09:42 pm N 4.1 6.0----30.03-- 41.7----
2024-06-20 09:36 pm N 5.1 6.0----30.02-- 41.7----
2024-06-20 09:30 pm N 5.1 6.0----30.03-- 41.7----
2024-06-20 09:24 pm N 5.1 7.0----30.03-- 41.5----
2024-06-20 09:18 pm N 4.1 5.1----30.02-- 41.5----
2024-06-20 09:12 pmNNW 2.9 5.1----30.02-- 41.7----
2024-06-20 09:06 pm NE 1.0 2.9----30.02-- 41.7----
2024-06-20 09:00 pm NE 2.9 6.0----30.02+0.04- 41.5----
2024-06-20 08:54 pmENE 4.1 6.0----30.01-- 41.7----
2024-06-20 08:48 pmENE 4.1 8.0----30.01-- 41.7----
2024-06-20 08:42 pmENE 7.0 11.1----30.01-- 41.7----
2024-06-20 08:36 pmENE 6.0 11.1----30.01-- 41.7----
2024-06-20 08:30 pmENE 5.1 9.9----30.01-- 41.7----
2024-06-20 08:24 pmENE 7.0 9.9----30.01-- 41.7----
2024-06-20 08:18 pmENE 7.0 8.9----30.01-- 41.7----
2024-06-20 08:12 pmENE 5.1 7.0----30.01-- 41.7----
2024-06-20 08:06 pmENE 5.1 8.0----30.01-- 41.7----
2024-06-20 08:00 pmENE 7.0 8.9----30.01+0.04- 41.7----
2024-06-20 07:54 pmENE 7.0 8.9----30.01-- 41.7----
2024-06-20 07:48 pmENE 6.0 8.0----30.01-- 41.7----
2024-06-20 07:42 pmENE 6.0 7.0----30.00-- 41.7----
2024-06-20 07:36 pm NE 2.9 6.0----30.00-- 41.7----
2024-06-20 07:30 pm NE 5.1 6.0----30.00-- 41.7----
2024-06-20 07:24 pmENE 7.0 8.9----30.00-- 41.9----
2024-06-20 07:18 pmENE 6.0 7.0----30.00-- 41.9----
2024-06-20 07:12 pmENE 5.1 8.0----30.00-- 41.9----
2024-06-20 07:06 pmENE 7.0 8.9----30.00-- 41.9----
2024-06-20 07:00 pmENE 6.0 8.0----29.99+0.04- 41.9----
2024-06-20 06:54 pmENE 7.0 8.0----29.99-- 42.1----
2024-06-20 06:48 pmENE 5.1 7.0----29.99-- 42.1----
2024-06-20 06:42 pmENE 2.9 7.0----29.99-- 42.1----
2024-06-20 06:36 pmENE 1.9 2.9----29.99-- 41.9----
2024-06-20 06:30 pmENE 1.9 4.1----29.99-- 42.1----
2024-06-20 06:24 pmENE 2.9 5.1----29.99-- 42.1----
2024-06-20 06:18 pm NE 4.1 5.1----29.99-- 42.1----
2024-06-20 06:12 pm NE 2.9 5.1----29.98-- 42.1----
2024-06-20 06:06 pm NE 2.9 5.1----29.98-- 41.9----
2024-06-20 06:00 pmENE 2.9 5.1----29.98+0.04- 42.1----
2024-06-20 05:54 pm E 4.1 8.0----29.98-- 42.1----
2024-06-20 05:48 pm E 5.1 8.0----29.98-- 41.9----
2024-06-20 05:42 pm E 6.0 8.0----29.98-- 41.9----
2024-06-20 05:36 pm E 6.0 8.0----29.98-- 41.9----
2024-06-20 05:30 pmENE 7.0 8.9----29.97-- 41.9----
2024-06-20 05:24 pmENE 5.1 8.9----29.97-- 41.9----
2024-06-20 05:18 pmENE 6.0 8.0----29.97-- 41.9----
2024-06-20 05:12 pmENE 6.0 8.9----29.97-- 41.9----
2024-06-20 05:06 pmENE 7.0 8.9----29.97-- 41.9----
2024-06-20 05:00 pmENE 7.0 9.9----29.97+0.04- 41.9----
2024-06-20 04:54 pmENE 8.0 8.9----29.97-- 41.9----
2024-06-20 04:48 pmENE 7.0 9.9----29.96-- 41.9----
2024-06-20 04:42 pmENE 7.0 9.9----29.96-- 41.9----
2024-06-20 04:36 pmENE 8.0 9.9----29.96-- 41.9----
2024-06-20 04:30 pmENE 8.9 9.9----29.96-- 41.9----
2024-06-20 04:24 pmENE 8.9 11.1----29.96-- 41.9----
2024-06-20 04:18 pmENE 9.9 12.0----29.96-- 42.1----
2024-06-20 04:12 pmENE 8.0 12.0----29.96-- 42.1----
2024-06-20 04:06 pmENE 9.9 12.0----29.95-- 42.1----
2024-06-20 04:00 pmENE 8.9 11.1----29.95+0.04- 42.1----
2024-06-20 03:54 pmENE 7.0 8.0----29.96-- 42.1----
2024-06-20 03:48 pmENE 6.0 8.9----29.95-- 41.9----
2024-06-20 03:42 pmENE 7.0 8.9----29.95-- 41.9----
2024-06-20 03:36 pmENE 7.0 8.0----29.95-- 41.9----
2024-06-20 03:30 pm NE 5.1 8.0----29.95-- 41.9----
2024-06-20 03:24 pm NE 5.1 8.0----29.95-- 41.9----
2024-06-20 03:18 pm NE 7.0 8.0----29.95-- 41.9----
2024-06-20 03:12 pmENE 7.0 8.9----29.94-- 41.9----
2024-06-20 03:06 pmENE 7.0 8.9----29.94-- 41.9----
2024-06-20 03:00 pmENE 8.0 8.9----29.94+0.04- 41.9----
2024-06-20 02:54 pmENE 8.0 9.9----29.94-- 41.9----
2024-06-20 02:48 pmENE 7.0 9.9----29.94-- 41.9----
2024-06-20 02:42 pmENE 6.0 8.0----29.94-- 41.9----
2024-06-20 02:36 pmENE 7.0 8.9----29.94-- 41.9----
2024-06-20 02:30 pmENE 6.0 8.0----29.94-- 41.9----
2024-06-20 02:24 pm NE 5.1 8.0----29.94-- 41.9----
2024-06-20 02:18 pmENE 6.0 8.0----29.94-------
2024-06-20 02:12 pmENE 6.0 8.0----29.94-------
2024-06-20 02:06 pm NE 7.0 8.0----29.93-------
2024-06-20 02:00 pmENE 5.1 8.0----29.93+0.04- 41.7----
2024-06-20 01:54 pmENE 5.1 8.0----29.93-- 41.7----
2024-06-20 01:48 pm NE 5.1 8.0----29.93-- 41.7----
2024-06-20 01:42 pm NE 5.1 8.0----29.93-- 41.7----
2024-06-20 01:36 pm NE 5.1 7.0----29.92-- 41.7----
2024-06-20 01:30 pm NE 4.1 7.0----29.92-- 41.7----
2024-06-20 01:24 pmENE 4.1 6.0----29.92-- 41.7----
2024-06-20 01:18 pmENE 4.1 5.1----29.92-- 41.7----
2024-06-20 01:12 pm E 4.1 4.1----29.91-- 41.7----
2024-06-20 01:06 pm E 4.1 4.1----29.91-- 41.7----
2024-06-20 01:00 pm E 2.9 4.1----29.91+0.03- 41.9----
2024-06-20 12:54 pm E 2.9 2.9----29.91-- 41.9----
2024-06-20 12:48 pm E 1.9 2.9----29.91-- 41.9----
2024-06-20 12:42 pm- 0.0 1.9----29.91-- 41.7----
2024-06-20 12:36 pmNNW 1.0 1.9----29.91-- 41.7----
2024-06-20 12:30 pm W 1.9 1.9----29.91-- 41.7----
2024-06-20 12:24 pm W 1.9 1.9----29.90-- 41.9----
2024-06-20 12:18 pm- 0.0 1.0----29.90-- 41.9----
2024-06-20 12:12 pmENE 1.0 1.0----29.90-- 41.9----
2024-06-20 12:06 pm- 0.0 1.0----29.90-- 41.9----
2024-06-20 12:00 pm- 0.0 1.0----29.90+0.02- 41.9----
2024-06-20 11:54 am N 1.0 1.0----29.90-- 41.9----
2024-06-20 11:48 am- 0.0 1.9----29.90-- 41.9----
2024-06-20 11:42 am- 0.0 1.9----29.90-- 41.9----
2024-06-20 11:36 am E 1.9 1.9----29.89-- 42.1----
2024-06-20 11:30 am E 1.0 1.9----29.90-- 42.3----
2024-06-20 11:24 am E 1.0 1.9----29.90-- 42.1----
2024-06-20 11:18 am- 0.0 1.9----29.90-- 41.9----
2024-06-20 11:12 am E 1.0 1.9----29.90-- 41.9----
2024-06-20 11:06 am E 1.9 2.9----29.90-- 42.1----
2024-06-20 11:00 am- 0.0 1.9----29.89+0.02- 42.3----
2024-06-20 10:54 am- 0.0 1.0----29.89-- 42.3----
2024-06-20 10:48 am- 0.0 1.0----29.89-- 42.3----
2024-06-20 10:42 am- 0.0 1.0----29.89-- 42.3----
2024-06-20 10:36 amWNW 1.0 1.9----29.89-- 42.3----
2024-06-20 10:30 amWNW 1.0 1.9----29.89-- 42.3----
2024-06-20 10:24 am- 0.0 1.9----29.89-- 42.3----
2024-06-20 10:18 amENE 1.9 1.9----29.89-- 42.3----
2024-06-20 10:12 amENE 1.0 1.9----29.89-- 42.3----
2024-06-20 10:06 am E 1.9 2.9----29.89-- 42.3----
2024-06-20 10:00 am- 0.0 2.9----29.89+0.03- 42.4----
2024-06-20 09:54 am E 1.9 2.9----29.89-- 42.3----
2024-06-20 09:48 amENE 1.9 2.9----29.89-- 42.3----
2024-06-20 09:42 am E 1.0 2.9----29.88-- 42.3----
2024-06-20 09:36 amENE 1.9 2.9----29.88-- 42.1----
2024-06-20 09:30 am E 1.9 1.9----29.88-- 42.1----
2024-06-20 09:24 am- 0.0 1.0----29.88-- 42.3----
2024-06-20 09:18 am- 0.0 1.9----29.88-- 42.3----
2024-06-20 09:12 am NW 1.0 1.0----29.88-- 42.4----
2024-06-20 09:06 am NW 1.0 2.9----29.88-- 42.4----
2024-06-20 09:00 am NW 1.0 2.9----29.88+0.03- 42.3----
2024-06-20 08:54 am- 0.0 2.9----29.88-- 42.3----
2024-06-20 08:48 am N 1.9 2.9----29.88-- 42.3----
2024-06-20 08:42 am N 1.9 4.1----29.88-- 42.3----
2024-06-20 08:36 am N 2.9 4.1----29.88-- 42.3----
2024-06-20 08:30 amNNW 2.9 4.1----29.88-- 42.3----
2024-06-20 08:24 am- 0.0 1.9----29.87-- 42.1----
2024-06-20 08:18 amSSE 1.9 2.9----29.87-- 42.1----
2024-06-20 08:12 am S 1.9 2.9----29.87-- 42.3----
2024-06-20 08:06 amSSE 2.9 4.1----29.87-- 42.3----
2024-06-20 08:00 amSSE 1.9 4.1----29.87+0.03- 42.3----
2024-06-20 07:54 amSSE 2.9 5.1----29.87-- 42.3----
2024-06-20 07:48 am S 2.9 5.1----29.87-- 42.3----
2024-06-20 07:42 amSSE 2.9 5.1----29.87-- 42.3----
2024-06-20 07:36 am S 2.9 4.1----29.87-- 42.3----
2024-06-20 07:30 amSSE 4.1 5.1----29.87-- 42.3----
2024-06-20 07:24 amSSE 2.9 5.1----29.87-- 42.4----
2024-06-20 07:18 amSSE 4.1 5.1----29.87-- 42.4----
2024-06-20 07:12 amSSE 2.9 4.1----29.86-- 42.4----
2024-06-20 07:06 amSSE 2.9 4.1----29.86-- 42.4----
2024-06-20 07:00 amSSE 2.9 4.1----29.86+0.02- 42.3----
2024-06-20 06:54 amSSE 2.9 4.1----29.86-- 42.3----
2024-06-20 06:48 am SE 1.9 2.9----29.86-- 42.3----
2024-06-20 06:42 amESE 1.9 2.9----29.85-- 42.3----
2024-06-20 06:36 am E 1.9 2.9----29.85-- 42.3----
2024-06-20 06:30 am E 1.0 1.0----29.85-- 42.3----
2024-06-20 06:24 am- 0.0 1.0----29.85-- 42.3----
2024-06-20 06:18 am- 0.0 1.0----29.85-- 42.4----
2024-06-20 06:12 am- 0.0 1.0----29.85-- 42.4----
2024-06-20 06:06 am- 0.0 1.0----29.85-- 42.4----
2024-06-20 06:00 am- 0.0 1.0----29.85+0.00- 42.4----
2024-06-20 05:54 am- 0.0 1.9----29.84-- 42.4----
2024-06-20 05:48 am N 1.9 2.9----29.84-- 42.4----
2024-06-20 05:42 am N 1.9 2.9----29.84-- 42.4----
2024-06-20 05:36 amNNW 1.9 1.9----29.84-- 42.3----
2024-06-20 05:30 am N 1.0 1.9----29.84-- 42.4----
2024-06-20 05:24 amNNW 1.0 1.9----29.84-- 42.4----
2024-06-20 05:18 amNNW 1.0 2.9----29.84-- 42.4----
2024-06-20 05:12 am NW 1.9 1.9----29.84-- 42.4----
2024-06-20 05:06 am NW 1.9 2.9----29.84-- 42.4----
2024-06-20 05:00 am N 1.0 1.9----29.84+0.00- 42.3----
2024-06-20 04:54 am N 1.0 1.9----29.84-- 42.4----